Location: Haliburton Scout Reserve
(45.0900°N, 78.3200°W)
Time: 03:36:17
(UTC-04:00)

PCSat - Pass Details

Date: 26 May 2022
Orbit: 784 x 795 km, 67.1° (Epoch: 24 June)

Event Time Altitude Azimuth Distance (km) Brightness Sun altitude
Rises 03:29:27 0° 323° (NW) 3,304 13.0 -16.6°
Reaches altitude 10° 03:31:57 10° 318° (NW) 2,370 12.2 -16.3°
Maximum altitude 03:37:08 47° 246° (WSW) 1,045 9.8 -15.8°
Enters shadow 03:41:12 16° 178° (S) 1,964 11.2 -15.4°
